Theta_e
306 309 311 310 311 312 312 312 314 314 315 315 315 315 315 314 313 312 314 314 314 313 312 312 311 310 310 312 313 314 315 315 315 316 317 318 318 319 321 322 323 324 323 321 318 314 313 310 308 306 305 303 301 300 299 298 297 295 294 293 291 290 290 290 289 288 287 286 286 286 287 289 290 289 288 288 288 287 287 287 287 287 287 287 287
308 307 309 310 309 310 310 311 311 312 313 314 314 314 314 314 313 313 313 314 313 313 312 311 311 312 312 311 310 312 310 312 311 311 313 315 316 317 317 319 320 320 319 319 317 315 312 309 307 306 305 304 302 300 298 297 296 295 294 293 292 291 290 290 289 288 286 283 283 284 285 286 288 287 288 288 288 288 288 288 288 288 287 287 287
307 307 309 309 309 310 309 309 310 312 312 312 313 313 312 313 313 313 313 313 312 312 312 311 311 312 313 310 314 307 309 311 311 309 308 312 313 315 315 316 318 318 318 316 316 314 312 310 308 307 306 304 301 299 297 296 295 295 294 292 290 290 290 291 289 288 285 285 285 283 281 282 287 285 286 286 287 287 287 287 287 287 287 287 287
307 306 307 307 308 308 307 308 309 310 310 310 310 311 312 311 312 312 312 312 312 310 310 312 312 313 314 312 310 306 302 303 305 305 305 306 308 311 313 314 315 316 316 315 314 313 312 311 309 307 306 304 301 298 296 295 295 294 294 293 292 289 289 289 290 291 288 286 282 285 282 282 279 281 282 285 286 286 287 287 287 287 287 287 286
307 306 305 306 307 307 307 307 308 308 309 309 309 310 311 310 311 311 311 311 311 310 311 312 308 306 305 305 304 303 303 302 303 303 304 305 304 305 308 311 312 313 314 314 313 313 312 310 309 307 305 303 301 298 296 296 295 295 294 293 292 290 289 289 290 294 290 290 288 285 283 284 282 282 282 282 284 284 285 286 287 286 286 286 285
305 306 306 306 306 305 305 306 307 307 308 309 309 310 310 310 311 311 310 309 309 310 311 310 307 305 305 306 305 305 303 302 303 303 302 303 303 303 302 307 310 311 311 311 311 311 310 309 308 306 304 302 301 299 297 296 295 295 295 294 293 292 291 289 289 293 294 294 293 292 290 286 283 282 282 278 283 285 284 285 285 286 286 286 286
306 306 305 304 304 305 305 306 306 307 308 309 309 309 309 309 309 310 309 308 309 309 310 307 309 308 307 308 308 308 307 305 306 306 303 304 304 302 301 302 307 309 310 310 309 309 309 308 307 305 304 303 300 299 297 296 296 295 296 295 294 294 293 290 290 291 292 292 294 292 291 292 285 283 281 280 278 282 283 283 284 286 285 285 285
306 305 304 305 305 305 305 306 306 307 307 308 308 309 309 309 309 309 308 307 308 309 309 307 309 309 308 308 308 308 308 305 305 304 304 303 303 301 300 300 302 306 307 308 309 308 308 307 306 305 303 302 300 299 298 298 297 297 296 295 295 295 293 291 290 291 291 290 290 290 289 287 287 288 285 281 280 278 279 283 284 284 284 284 285
306 305 303 304 304 304 304 305 306 307 308 308 308 308 308 308 308 308 307 307 307 307 307 307 308 309 308 309 308 308 309 306 305 303 302 301 301 299 299 299 300 301 303 304 307 308 306 307 306 304 303 302 300 300 300 298 297 296 295 295 295 295 294 293 291 291 290 289 289 289 289 288 288 287 286 286 280 279 279 279 280 283 283 283 284
303 305 303 303 304 304 304 305 306 306 307 308 308 308 308 308 308 308 306 307 307 307 305 306 308 308 308 308 308 308 309 306 304 303 301 300 299 298 298 298 299 299 300 301 303 305 306 306 305 304 303 302 300 301 300 298 298 297 296 296 296 295 294 294 292 290 291 290 290 288 288 286 284 284 286 284 283 282 280 279 280 280 279 280 282
302 302 302 302 303 304 304 304 305 306 307 308 307 307 307 307 307 307 307 307 306 305 304 305 308 308 308 308 309 309 309 305 303 301 299 299 299 296 297 297 297 299 299 300 301 302 304 305 305 304 303 301 300 301 300 299 299 298 297 296 296 295 294 294 294 292 292 290 289 288 288 288 285 283 283 283 280 280 279 279 279 279 279 279 280
301 300 300 300 301 301 302 303 304 305 306 307 306 307 307 307 307 306 306 306 305 304 304 304 306 308 308 309 309 309 309 304 303 301 299 300 300 296 296 295 296 296 297 298 299 301 302 303 304 304 303 302 301 302 301 300 300 298 297 297 296 294 294 295 293 292 290 290 289 288 287 287 286 285 285 285 283 282 281 280 279 279 280 279 282
301 300 300 300 300 300 301 301 303 304 305 306 306 306 306 306 306 305 305 305 304 303 303 304 305 307 307 308 309 309 308 305 305 303 301 301 300 297 295 294 294 294 295 296 298 300 301 302 302 303 303 302 302 302 301 301 301 300 297 297 296 295 295 294 292 291 290 289 287 287 287 288 286 286 286 285 283 283 282 280 280 281 278 279 280
301 301 300 299 300 300 300 301 303 304 305 306 305 305 305 306 305 305 305 305 304 302 302 303 304 306 307 308 309 309 308 305 305 303 301 302 301 298 296 295 294 294 294 296 297 299 299 301 302 303 303 302 302 302 302 301 300 299 298 297 296 294 293 291 290 289 289 287 287 286 286 285 285 286 285 284 283 283 282 282 281 281 279 279 279
301 301 301 301 301 301 301 301 302 303 305 305 305 305 304 304 304 304 304 304 304 302 302 302 303 305 306 307 309 308 307 304 304 303 301 301 301 300 297 296 295 295 295 296 296 297 298 300 301 302 302 301 301 301 300 300 299 298 297 295 293 291 290 290 288 287 288 286 286 286 285 285 284 285 283 284 284 283 283 282 281 279 277 277 278
302 302 302 301 301 301 301 301 302 303 304 305 304 304 304 304 304 304 303 303 304 302 301 301 302 304 305 306 307 307 305 304 303 301 301 301 300 300 298 297 297 297 296 296 296 297 297 299 299 300 300 299 300 299 299 298 297 296 293 291 289 290 288 287 286 287 286 286 285 285 284 283 284 283 283 283 282 282 282 281 280 280 278 275 277
302 302 302 302 302 301 301 301 301 302 303 304 304 304 304 303 303 303 303 303 303 302 301 301 302 303 304 305 306 305 304 303 303 301 300 301 300 299 298 297 297 297 296 296 295 296 297 297 298 298 298 298 298 298 297 296 294 292 290 288 287 286 287 287 286 286 286 285 284 283 283 283 282 281 281 282 282 281 281 279 279 279 279 276 275
303 303 303 303 303 302 302 301 302 302 303 304 304 304 304 304 303 303 302 302 303 302 301 301 301 302 303 304 305 304 304 303 303 301 300 300 300 299 299 298 297 297 296 295 294 295 295 294 296 296 296 297 296 295 294 292 291 289 288 287 287 287 286 286 286 286 285 284 283 282 282 281 281 280 281 280 280 280 280 280 278 279 279 278 276
302 302 302 302 301 301 301 301 301 302 303 304 304 304 304 303 303 303 303 303 303 303 301 300 301 302 302 303 304 304 303 302 302 302 300 300 299 299 299 299 298 296 295 294 293 293 293 293 294 293 292 293 293 292 291 289 288 287 286 286 286 286 286 285 285 285 284 283 282 282 281 280 280 281 281 280 280 280 280 279 278 280 279 278 278
303 302 301 301 301 300 300 301 301 302 302 303 304 303 303 303 303 302 302 302 302 301 299 299 300 301 301 302 302 303 302 301 301 301 300 300 300 299 299 297 297 295 294 293 292 292 292 292 291 290 290 290 289 289 289 287 287 286 285 285 285 285 285 285 284 284 284 283 282 281 281 281 281 281 280 280 280 280 279 279 279 279 278 278 278
302 302 300 300 299 298 298 298 299 299 301 302 303 303 303 303 303 302 302 302 302 302 300 299 298 300 301 301 301 302 301 301 300 300 300 300 300 298 298 297 294 293 292 292 291 291 291 290 289 289 289 289 288 287 287 287 286 285 285 285 285 285 285 284 284 283 283 282 282 282 282 281 281 280 280 279 279 279 279 279 279 279 278 277 277
303 301 299 298 297 297 297 296 296 297 300 301 303 302 302 302 303 302 302 302 302 302 301 299 298 298 299 300 300 301 300 299 299 298 298 298 298 297 296 294 292 291 291 291 291 291 290 290 289 289 288 288 288 287 287 286 285 285 285 286 285 284 284 283 283 283 282 282 282 282 281 280 280 279 279 279 278 278 278 278 278 278 277 277 276
301 299 299 298 297 297 297 297 297 298 299 299 300 302 302 302 302 302 302 301 302 302 302 300 298 298 298 299 299 298 298 298 297 295 296 296 295 295 293 293 292 290 290 291 290 290 290 289 289 288 287 287 287 287 286 286 286 285 285 285 285 284 283 283 282 282 282 282 281 281 280 280 280 279 278 278 278 277 278 278 278 277 277 277 276
299 297 297 296 294 294 294 295 297 298 298 300 301 302 302 302 302 301 301 301 301 302 302 300 298 296 296 297 297 296 295 295 296 295 295 295 294 293 292 292 292 290 290 290 290 289 289 288 288 287 287 287 287 286 286 286 285 285 285 284 284 283 283 283 282 281 281 281 280 280 279 279 279 278 278 277 277 277 278 278 277 276 276 276 276
297 297 296 295 293 294 296 296 297 297 298 299 300 301 301 301 301 301 300 300 301 301 300 300 296 293 293 295 296 296 294 293 293 293 293 293 293 292 292 292 291 290 290 289 289 288 288 288 287 287 286 286 286 286 286 285 285 285 285 284 283 282 282 282 281 281 282 281 280 280 279 279 278 277 277 277 277 277 278 278 277 277 276 276 276
299 298 295 295 295 293 293 294 296 296 297 298 300 300 301 301 301 301 300 300 300 300 300 298 295 293 293 293 295 295 294 293 292 292 292 291 291 291 291 291 291 290 289 289 288 287 287 287 287 286 286 286 286 286 286 285 284 284 284 283 283 282 281 281 281 281 281 280 280 279 279 278 278 278 277 277 277 278 278 277 276 276 276 276 276
300 299 298 295 293 295 295 295 296 296 296 298 299 299 299 299 299 299 300 299 299 299 298 297 295 294 293 293 294 295 294 293 292 292 291 291 290 289 289 290 290 290 289 288 287 287 287 287 286 286 285 285 286 285 285 285 284 283 283 282 282 281 281 280 280 280 280 280 280 279 279 279 279 278 278 278 278 278 278 277 276 277 276 276 276
300 299 299 298 298 296 295 295 295 296 296 297 298 298 299 299 299 299 299 298 299 297 297 295 295 294 294 293 294 294 294 293 291 291 291 291 290 290 289 290 289 289 288 288 287 287 286 286 286 285 285 285 285 284 284 284 283 283 282 282 281 281 280 280 279 279 279 279 279 279 279 279 279 279 279 279 279 278 279 277 277 277 276 276 276
298 299 299 298 298 298 297 296 296 295 295 295 295 296 297 298 298 298 298 298 297 296 296 295 294 294 294 293 293 294 294 293 291 290 290 290 290 290 289 289 288 288 288 288 287 287 286 285 285 284 284 284 284 284 284 283 283 282 282 281 281 281 280 279 278 278 278 279 279 279 279 279 280 281 282 282 282 282 279 278 277 277 277 276 276
300 300 300 299 300 299 299 298 296 295 295 295 295 296 297 298 298 297 297 298 295 296 296 295 294 294 293 292 293 293 293 293 291 290 290 289 289 289 288 288 288 288 288 287 287 286 285 285 284 283 283 283 283 284 284 286 285 283 282 282 281 280 280 279 279 278 278 278 279 279 280 281 282 282 283 284 284 284 283 281 279 278 277 276 276
299 299 299 300 301 301 300 298 297 296 296 296 296 297 297 296 297 297 297 297 296 295 295 295 294 294 292 292 292 292 292 292 292 291 290 289 288 288 287 287 287 287 287 286 286 285 285 284 284 283 282 283 283 283 286 288 288 287 283 281 281 280 280 279 279 279 278 278 278 278 279 281 282 282 282 285 285 285 285 284 284 283 281 278 276
300 301 300 301 301 301 300 300 299 297 296 296 296 296 295 296 297 297 298 296 295 295 295 294 294 293 292 292 292 291 291 292 292 291 289 288 288 287 287 286 286 286 286 285 285 285 284 284 283 283 282 282 282 285 288 289 289 288 286 282 281 280 280 279 279 279 278 278 278 278 279 280 280 280 280 282 284 286 286 285 285 284 284 284 283
300 300 300 301 301 301 301 301 300 299 298 297 297 295 295 296 296 297 296 295 296 296 295 294 293 292 292 292 291 290 290 290 290 290 289 287 287 286 286 286 285 286 285 284 284 284 284 284 283 283 282 282 283 286 288 289 289 289 287 284 281 281 280 279 279 279 278 278 278 278 278 279 280 282 281 281 281 282 285 286 285 285 285 285 285
299 301 301 302 302 302 302 301 301 300 299 299 297 296 296 297 296 294 294 296 296 295 294 293 292 292 292 291 290 289 289 289 288 288 288 287 286 286 286 286 286 285 284 284 284 284 284 283 283 283 283 283 282 285 288 289 289 288 288 286 281 280 280 280 279 279 279 278 278 278 278 278 279 280 280 280 280 280 280 281 281 280 280 282 285
302 302 302 302 302 303 302 300 298 298 297 296 295 295 295 293 293 294 295 295 295 295 294 293 292 292 291 290 290 289 289 288 287 287 287 286 286 286 285 285 285 285 284 284 284 284 284 284 283 283 283 283 282 286 288 289 289 289 288 286 281 280 280 279 279 279 279 279 279 279 279 279 279 279 280 280 280 279 279 279 279 279 279 278 279
302 302 302 302 302 302 301 299 298 295 296 294 296 295 294 294 293 293 293 294 294 294 294 292 292 291 291 290 290 289 288 287 287 286 286 286 286 286 285 285 285 285 285 285 285 284 284 284 283 283 282 282 282 286 288 288 289 289 290 282 280 280 279 279 279 279 279 279 279 279 279 279 279 279 282 284 282 280 279 277 276 277 277 277 277
302 301 302 302 301 298 298 297 296 296 294 294 295 293 293 292 291 292 292 293 293 293 293 292 292 292 291 290 290 289 288 287 286 286 286 286 286 285 285 286 285 285 284 284 284 284 284 284 283 283 282 282 281 285 287 288 288 289 287 281 280 280 279 279 279 279 279 279 279 279 279 279 280 280 282 285 285 282 278 277 276 275 276 275 276
298 298 296 296 294 294 295 295 296 296 295 295 292 292 292 291 291 291 291 291 291 292 293 292 292 291 291 290 290 289 288 287 286 286 286 286 286 286 285 285 285 285 284 284 285 284 284 284 283 283 283 282 281 283 287 287 288 288 284 281 280 280 279 279 279 279 279 279 279 281 281 280 280 280 284 286 286 283 278 277 276 275 274 274 275
293 293 293 293 293 291 293 291 291 294 295 291 289 290 291 291 290 290 291 291 291 292 292 292 292 291 290 289 289 289 288 287 286 286 286 285 285 285 286 285 285 285 285 285 285 284 284 284 283 283 283 282 281 283 287 287 288 288 285 281 281 280 279 279 279 278 278 279 279 281 282 281 281 282 285 287 287 284 279 277 277 275 274 274 275
291 290 291 292 291 291 293 292 291 292 291 290 288 289 290 290 290 290 290 290 291 292 292 291 288 289 288 288 288 288 287 287 286 286 285 285 285 285 285 285 285 285 285 284 284 284 283 283 283 282 282 282 280 282 285 287 287 288 287 282 281 280 279 279 279 279 279 279 279 279 282 285 284 284 285 287 287 287 280 278 277 275 274 275 273
293 293 290 290 291 289 290 290 290 289 288 288 287 288 289 289 289 288 289 291 291 290 287 288 288 288 287 287 288 288 287 287 286 285 285 285 285 285 285 284 284 285 284 284 283 283 283 282 282 281 281 281 281 281 284 287 288 288 287 284 282 281 281 280 280 280 280 279 279 279 280 284 285 285 286 287 288 288 285 278 277 276 276 275 275
291 290 289 290 289 289 288 287 286 287 287 286 286 288 289 288 287 288 290 290 287 287 287 287 287 287 287 287 287 287 287 286 285 285 285 285 285 285 285 284 284 284 284 283 283 282 281 280 280 280 280 280 281 282 283 286 287 288 287 286 283 283 283 282 281 281 281 280 280 280 279 282 285 286 287 286 287 287 287 281 278 281 282 282 278
291 292 291 288 289 289 289 288 286 285 285 285 285 287 287 287 287 289 288 286 285 286 287 287 286 286 285 286 286 286 285 285 285 285 285 285 285 284 284 284 283 283 283 282 282 281 281 280 279 279 279 279 280 281 283 284 286 288 288 287 286 285 286 284 283 282 282 282 282 281 281 283 285 286 286 287 286 286 286 283 284 284 284 284 282
288 287 288 287 287 288 288 287 286 284 284 284 286 287 287 286 288 286 284 283 285 285 286 286 285 284 284 284 284 285 284 284 284 284 284 284 284 284 283 283 283 283 282 281 281 281 280 279 278 278 278 278 279 279 282 284 285 287 288 287 287 286 287 284 284 283 283 283 282 281 281 284 286 286 286 286 286 286 283 285 285 285 285 284 278
288 288 288 285 287 287 287 287 286 284 282 283 283 286 286 286 286 284 283 284 284 284 285 284 284 283 284 283 283 284 283 283 283 284 284 284 283 283 282 283 283 282 282 281 281 280 280 280 279 278 278 278 278 279 280 282 284 285 287 287 287 286 287 286 284 283 282 282 283 284 285 285 286 286 286 286 285 285 285 285 285 284 283 278 276
286 287 287 286 285 285 285 286 286 282 283 283 283 284 285 286 283 282 282 283 284 284 284 283 283 283 283 283 282 282 283 283 283 284 284 284 284 283 283 282 282 282 282 281 280 280 280 280 279 278 278 278 278 278 279 280 282 283 284 286 286 286 286 286 284 283 283 284 285 286 286 286 285 285 283 279 278 277 284 284 284 283 279 277 277
287 287 286 286 284 285 285 285 286 284 281 282 282 283 283 282 281 281 282 283 283 284 283 282 282 282 281 282 282 282 282 283 284 284 284 284 284 283 283 282 282 282 281 281 280 279 279 279 278 279 278 278 277 278 278 278 280 280 281 283 284 285 285 285 284 282 283 283 284 283 282 283 282 283 282 281 280 281 279 279 277 277 276 276 277
285 285 283 283 284 284 284 285 285 285 282 281 282 281 281 281 280 282 281 282 282 283 282 281 281 282 282 282 282 280 282 283 283 284 283 283 283 283 282 282 282 281 280 280 279 279 279 279 279 279 278 277 277 277 277 277 278 279 279 279 280 280 281 281 281 280 280 280 280 282 283 280 279 279 279 278 278 278 278 278 278 278 278 279 280
286 283 282 284 283 284 284 284 284 282 280 279 279 278 278 279 280 281 282 282 282 281 282 281 281 282 282 282 282 283 283 283 283 283 283 283 283 282 282 282 283 283 283 282 281 280 280 281 280 280 279 277 277 276 277 279 278 280 278 277 277 278 278 278 280 281 278 277 277 276 275 275 274 275 274 273 273 274 275 278 278 279 279 278 278
285 282 282 282 282 283 283 283 283 280 278 277 276 277 277 278 279 281 282 283 282 282 282 281 281 281 281 282 282 282 282 283 282 281 280 280 280 284 283 282 281 283 284 284 283 281 281 281 281 281 281 279 278 278 280 281 280 281 281 281 280 280 280 279 281 283 279 275 274 274 273 274 272 272 273 272 272 272 272 273 276 279 278 277 277
286 283 282 281 282 282 281 281 281 278 278 277 277 277 277 279 281 282 283 283 283 283 282 282 282 281 281 281 281 281 281 282 281 280 280 279 279 281 284 284 283 283 284 285 284 284 284 283 282 280 282 283 283 282 282 281 281 281 281 281 281 281 281 281 282 280 276 274 273 273 272 272 273 272 272 272 271 271 270 271 273 276 277 277 277
Wind_Speed
6 9 12 12 12 11 9 7 7 7 8 9 10 10 11 11 10 11 8 8 8 8 7 7 7 5 4 6 6 5 6 5 4 4 4 4 4 4 5 6 7 9 11 10 10 10 10 11 11 10 10 10 11 11 11 10 8 9 9 7 12 11 7 6 7 8 12 8 7 6 6 5 5 5 5 5 5 5 5 5 4 6 5 6 5
5 6 6 7 6 6 6 7 8 11 10 10 12 12 11 10 11 10 9 9 9 8 8 7 5 6 6 6 4 5 6 7 6 4 5 4 5 5 4 6 7 8 8 10 12 12 11 10 11 12 11 10 8 8 9 9 11 10 9 8 5 11 9 9 9 10 3 8 9 5 5 5 4 4 4 4 5 5 4 5 4 4 5 5 5
6 6 6 7 7 7 7 6 6 8 8 10 9 8 9 9 9 9 9 9 8 8 8 7 5 5 5 4 6 3 2 4 5 5 4 5 5 5 5 5 8 8 9 8 11 12 14 13 12 11 11 10 10 9 10 11 11 13 12 11 9 4 6 7 9 3 8 6 6 8 4 3 1 3 3 4 4 4 4 4 4 4 5 5 5
7 8 8 7 8 8 6 7 8 6 6 6 6 9 8 7 7 8 9 7 7 7 8 6 7 5 4 4 4 5 4 5 5 4 4 5 6 5 5 6 7 8 9 9 8 7 9 13 12 12 11 11 11 12 11 12 11 11 11 10 12 11 8 8 7 4 10 14 6 3 5 4 4 3 3 1 3 4 4 3 4 4 4 5 6
6 6 6 7 8 9 9 7 6 7 7 8 7 7 6 7 7 8 8 8 7 7 8 7 7 6 5 6 6 7 5 5 5 5 6 5 5 5 6 5 6 7 8 10 10 11 10 10 12 12 12 11 11 11 12 13 13 12 13 12 13 13 11 8 9 5 8 3 6 7 3 2 4 5 6 1 3 3 3 3 3 4 4 5 5
5 8 11 11 9 5 5 6 7 7 7 7 8 9 8 8 8 7 7 6 7 8 8 7 8 8 8 8 8 7 7 8 10 10 8 7 7 4 4 5 6 6 7 8 9 9 11 11 11 11 11 10 10 11 11 9 10 11 12 12 10 8 13 11 8 4 8 2 1 1 5 5 8 7 6 3 1 1 4 3 3 4 4 5 4
5 4 6 7 6 7 6 8 8 8 6 5 6 7 6 6 6 7 7 6 6 7 9 8 8 8 10 9 8 10 10 8 5 5 7 6 6 7 5 4 6 8 8 8 8 9 10 10 11 12 12 11 10 9 10 12 11 11 10 10 10 9 9 12 12 9 3 1 1 1 1 0 10 12 4 5 3 1 2 2 1 3 3 4 4
5 5 5 8 9 10 11 9 8 8 6 5 6 6 7 7 7 7 6 7 6 6 8 8 9 9 9 9 8 8 7 6 6 6 6 6 7 6 5 4 5 6 7 8 9 10 10 10 10 11 11 11 11 11 12 10 8 7 9 9 8 9 11 10 9 8 12 6 3 2 3 7 7 2 8 9 6 7 3 0 1 3 4 4 4
6 6 6 8 9 8 7 7 6 6 7 7 7 6 6 6 7 7 7 7 7 6 7 7 7 8 9 8 8 6 5 5 5 6 6 6 7 6 6 5 4 5 6 7 8 10 10 11 11 11 11 11 11 10 10 10 12 12 10 9 10 9 9 8 8 9 6 7 6 2 4 5 2 3 7 5 4 4 2 5 3 2 2 2 5
5 5 5 5 7 6 6 6 6 7 6 6 6 6 7 6 8 8 7 7 7 7 7 7 7 7 8 9 9 7 6 6 7 7 7 7 8 7 6 6 5 5 5 5 6 8 10 10 10 12 12 11 10 10 10 11 10 10 11 11 10 9 7 8 9 6 5 5 6 6 5 3 3 2 1 3 3 4 8 8 7 8 7 3 3
4 5 4 4 5 6 6 7 6 6 6 7 7 7 7 7 8 9 8 8 8 8 8 8 8 9 9 10 10 9 8 8 8 8 7 7 8 7 7 6 6 6 5 5 5 6 8 10 11 11 11 10 10 10 10 11 11 11 10 9 9 9 8 7 7 6 6 7 7 7 7 8 7 6 7 4 4 3 5 4 4 5 5 5 3
4 5 5 5 5 5 5 6 7 7 7 8 7 7 7 7 8 9 8 9 8 8 9 9 9 10 9 10 11 10 9 8 10 10 9 9 8 8 6 5 6 5 6 5 5 6 7 8 9 10 10 10 11 9 9 10 10 9 9 9 8 7 7 7 7 8 7 6 6 6 6 6 4 5 6 7 6 5 8 8 7 4 3 1 3
6 5 5 5 6 7 7 6 7 8 9 8 9 8 7 7 8 9 8 8 9 9 9 9 10 10 10 10 10 9 9 9 9 9 9 9 8 8 8 7 6 6 7 7 7 9 8 9 9 10 9 10 11 9 8 9 8 8 9 8 8 8 9 7 8 8 9 8 7 5 6 4 3 4 6 6 4 7 8 7 4 6 5 3 3
6 6 6 6 7 6 6 7 7 8 8 9 8 8 7 7 8 9 9 9 8 10 10 10 10 11 11 10 9 9 9 9 8 8 8 8 8 9 10 9 9 9 9 10 10 10 9 10 11 11 11 11 11 11 10 9 9 9 9 9 8 7 7 7 8 7 7 6 7 7 6 5 4 5 5 6 7 8 7 9 7 3 3 4 3
6 6 7 8 8 7 8 7 7 8 8 8 7 7 7 7 9 10 9 9 9 10 10 11 10 11 11 10 9 7 9 9 8 7 9 9 8 9 9 8 9 10 10 9 9 10 10 9 10 10 10 10 10 9 9 10 9 8 8 7 7 7 8 8 8 9 9 8 6 7 6 6 5 4 6 5 5 7 9 8 9 7 2 3 3
6 6 7 6 7 7 7 7 7 7 7 7 7 8 8 8 8 9 9 9 10 8 9 10 9 9 10 11 11 8 7 8 7 7 8 9 9 9 9 9 9 8 8 8 9 8 9 9 9 9 9 9 9 9 9 9 9 9 7 7 8 5 9 9 7 8 9 9 8 7 8 6 5 5 6 6 6 6 7 7 8 8 8 3 2
6 7 7 7 6 7 8 8 7 7 7 9 9 9 10 9 9 9 9 7 9 9 8 7 8 9 11 11 10 9 8 10 9 9 10 9 8 9 8 9 8 8 8 8 9 9 8 9 10 9 9 9 8 8 8 8 9 9 9 8 9 7 9 9 7 8 8 8 7 8 8 7 6 5 5 6 6 7 7 6 6 8 7 7 5
8 7 7 8 8 8 7 7 7 8 8 8 9 8 9 9 9 10 10 11 9 9 9 8 9 9 9 11 10 9 8 8 8 9 9 9 8 8 8 8 9 8 8 8 9 10 9 9 9 9 8 8 9 8 8 9 9 8 8 8 8 8 9 7 7 8 8 8 8 8 7 7 5 7 6 5 6 7 7 7 6 5 5 6 3
5 6 6 6 6 7 7 7 6 7 7 8 8 8 8 8 8 10 11 10 10 8 7 7 8 7 7 9 10 9 8 8 8 8 8 9 9 9 10 9 8 9 9 9 10 9 9 9 8 8 7 8 8 9 9 9 9 9 8 8 7 9 9 8 7 9 8 9 10 9 7 7 6 7 6 6 6 7 7 6 6 6 5 6 6
6 6 6 6 6 7 7 7 7 8 7 7 8 7 9 9 9 9 7 7 8 8 8 8 8 8 8 8 9 9 8 8 8 9 9 9 9 9 9 8 9 8 9 10 10 11 10 10 9 9 9 8 9 8 9 9 9 9 9 9 8 10 10 10 8 7 7 9 10 10 8 8 7 7 6 6 7 6 6 7 6 6 4 4 5
5 5 5 5 5 5 5 5 5 5 5 6 8 10 9 9 10 11 12 10 10 9 9 9 8 9 10 12 11 11 11 9 8 8 9 9 9 9 8 8 6 8 9 10 10 10 10 10 10 10 11 10 10 9 8 9 9 9 9 10 10 10 11 9 10 9 7 9 9 10 8 7 7 8 7 7 7 6 6 6 5 6 5 3 4
3 3 4 4 4 4 3 3 4 5 6 7 7 7 8 10 10 10 10 10 10 10 10 9 9 9 10 11 12 11 11 9 10 9 9 9 8 9 9 7 8 8 9 10 11 9 9 10 10 10 10 9 9 10 10 10 10 11 10 8 10 11 11 11 10 11 9 7 9 11 9 8 6 9 8 7 7 7 6 6 5 6 6 4 3
4 4 5 5 5 6 6 6 6 7 6 6 7 9 10 9 9 9 11 11 10 10 9 9 10 10 10 9 9 10 10 11 11 9 10 9 8 8 8 10 9 8 7 9 10 9 10 10 10 10 11 10 11 10 9 10 11 13 13 11 11 12 13 13 12 12 11 10 10 10 10 8 7 9 7 7 6 6 6 7 6 4 6 4 3
3 3 3 4 4 4 5 5 6 7 7 9 9 8 9 9 10 9 11 11 10 9 9 9 9 10 9 9 10 8 10 10 11 10 11 10 9 8 8 9 9 8 9 8 8 9 9 10 11 10 11 11 11 10 10 10 12 13 13 14 13 12 12 13 13 12 12 12 12 11 9 9 9 9 8 7 6 6 6 6 6 4 5 5 4
3 4 5 4 4 6 7 7 8 8 8 9 10 10 9 10 9 10 9 9 10 9 9 9 8 10 10 11 11 11 12 12 12 10 12 11 10 9 9 10 9 9 8 8 8 8 9 10 11 12 12 12 12 12 12 11 10 11 13 14 13 12 12 12 13 13 13 12 12 12 11 10 9 10 7 7 7 7 6 6 7 6 6 5 4
6 8 4 5 7 6 5 7 7 8 8 9 9 10 10 9 10 8 9 9 10 9 9 9 8 10 10 12 12 12 14 14 13 12 12 11 10 10 9 9 10 10 9 9 10 10 11 12 11 12 12 13 13 13 13 13 12 11 10 11 12 12 12 12 11 11 12 11 12 11 11 11 11 11 10 8 8 9 7 7 7 6 6 4 5
6 3 5 5 6 10 10 8 9 9 9 10 9 9 8 8 9 9 9 9 9 9 10 10 10 10 10 12 13 13 12 12 12 12 10 10 10 10 10 11 10 10 11 10 10 11 10 12 12 11 12 12 13 12 12 11 11 10 11 11 11 11 11 10 10 11 11 10 10 11 11 11 11 11 11 11 10 9 8 8 8 8 6 6 6
2 2 5 9 10 8 8 11 10 11 10 8 9 9 9 10 11 10 9 9 9 10 10 9 10 11 12 13 12 11 11 11 9 9 11 11 11 11 11 10 9 11 12 12 12 12 11 11 11 12 12 11 12 12 11 10 11 12 12 11 12 12 11 10 10 9 10 10 10 11 11 11 11 11 11 10 11 10 8 8 7 7 7 7 7
6 7 8 8 8 8 10 10 11 9 9 11 8 9 8 9 10 9 9 11 9 10 11 10 10 12 14 11 10 10 10 10 10 10 11 12 12 11 11 10 10 10 10 11 11 12 12 12 11 11 11 10 11 11 10 11 12 11 11 12 12 12 13 12 10 10 9 9 9 10 10 10 11 12 13 12 12 11 10 8 7 8 8 8 7
9 8 8 8 9 10 11 10 9 10 12 11 11 11 13 13 11 10 10 10 8 11 12 11 12 13 10 9 9 9 10 10 11 13 12 11 11 11 11 11 12 11 11 11 11 11 11 12 12 11 10 9 10 8 12 18 17 14 12 10 10 12 13 13 13 11 9 9 10 9 9 14 14 14 14 14 14 14 13 11 11 10 9 8 8
7 7 7 8 11 12 10 9 9 11 13 13 13 13 11 11 10 12 12 11 9 10 11 12 14 11 9 9 9 11 10 12 13 12 11 12 12 10 11 11 11 11 12 11 10 11 12 11 11 11 12 10 9 10 18 19 20 20 15 13 14 13 12 12 12 13 13 11 9 8 8 11 12 11 11 14 15 16 15 13 11 11 11 12 9
9 9 9 10 11 10 11 11 11 11 12 11 12 13 12 13 14 14 13 9 10 12 13 13 12 10 10 11 11 10 11 13 12 13 13 11 10 10 11 11 11 11 10 9 11 12 11 11 10 11 11 10 10 13 20 20 21 21 17 13 12 12 12 12 12 13 12 11 11 10 8 8 9 10 10 9 11 14 15 14 14 14 13 12 13
8 8 10 10 10 10 11 12 10 10 11 14 14 12 12 15 15 16 9 8 12 13 12 12 11 12 12 12 10 12 12 12 13 12 11 10 11 11 12 12 12 11 9 11 12 12 12 11 11 11 11 11 12 19 21 23 23 22 21 16 12 13 14 13 12 12 12 12 11 10 9 8 8 12 9 9 8 8 11 13 13 13 14 16 15
7 8 10 11 10 10 10 10 9 9 12 14 13 15 16 15 13 7 10 13 13 13 13 13 11 12 13 12 11 12 13 13 10 10 11 11 12 13 11 10 9 9 11 11 11 13 12 13 13 13 12 12 11 16 22 23 23 22 22 15 12 13 13 13 13 13 11 12 12 12 11 9 8 9 9 9 8 8 7 7 8 8 7 10 14
14 14 12 12 13 14 14 10 8 8 7 7 7 10 12 7 8 11 11 12 12 12 12 11 12 12 11 11 13 13 13 11 11 11 11 11 12 10 11 11 11 12 12 13 13 13 12 11 11 11 11 11 10 14 19 20 21 22 22 14 11 10 10 10 11 11 12 12 12 11 11 11 11 10 10 11 10 10 8 8 8 8 9 9 9
13 13 12 12 12 13 12 10 7 6 6 6 9 10 9 10 8 10 10 11 12 12 12 10 12 12 13 13 13 13 13 12 12 12 12 13 13 13 13 11 10 10 9 9 9 10 12 12 11 12 13 12 11 18 21 23 23 20 16 12 10 11 11 10 10 10 9 9 10 10 10 9 10 10 11 15 11 8 8 9 9 9 8 8 9
11 10 11 10 8 7 9 7 7 7 6 7 8 6 8 7 8 9 10 11 10 12 12 13 14 13 13 13 13 14 13 12 12 13 14 14 14 13 11 9 11 11 11 11 11 10 10 11 11 11 11 10 10 16 21 22 21 20 14 8 8 8 8 9 10 9 9 8 8 9 9 9 9 9 11 15 16 12 7 9 9 9 8 7 9
7 7 6 7 6 6 7 6 8 8 7 7 6 6 7 8 9 8 9 10 11 14 13 14 14 12 12 13 13 13 12 12 12 14 14 12 10 8 10 10 12 12 12 11 10 9 9 9 11 12 13 12 10 14 22 22 22 21 15 10 8 8 8 8 6 7 6 7 8 12 10 9 9 9 12 16 18 13 9 9 9 9 8 9 9
2 4 6 7 6 6 6 6 6 8 8 4 4 6 7 9 9 9 10 11 12 14 13 14 14 12 10 9 10 10 11 12 13 13 12 11 11 10 8 8 9 8 9 8 9 9 9 8 9 10 13 13 8 11 20 21 21 21 14 7 8 8 8 7 7 7 6 6 6 8 11 10 9 7 13 16 18 14 10 9 10 8 10 11 9
6 5 5 6 6 6 9 8 7 8 6 3 4 5 7 9 9 8 9 12 14 15 13 8 6 7 7 9 9 10 11 12 13 10 9 9 7 7 8 9 8 7 8 8 8 7 9 8 7 8 8 9 9 10 15 22 21 21 16 10 7 9 9 8 7 7 7 5 6 6 9 11 12 12 14 16 17 17 11 9 8 9 9 13 4
9 7 6 5 6 5 6 7 7 6 5 2 4 5 7 8 7 7 12 15 12 7 5 6 7 7 8 9 9 10 11 10 9 10 9 8 8 9 8 9 9 7 7 7 8 7 7 5 5 6 6 6 6 9 12 21 19 18 18 14 8 8 8 8 8 7 7 7 7 7 6 10 16 15 14 15 15 18 14 9 9 10 11 4 6
7 7 5 7 7 6 6 5 5 5 3 2 4 6 8 6 6 11 15 7 4 5 6 6 8 9 9 9 9 7 8 9 9 9 10 9 8 9 9 10 8 8 9 8 8 7 6 5 5 6 6 6 5 10 9 16 18 18 18 15 9 8 8 9 8 7 7 7 8 7 6 9 15 16 14 14 17 16 17 9 9 11 9 10 6
9 13 10 6 10 11 10 8 5 3 2 4 4 7 7 7 10 14 6 3 4 5 6 7 6 7 7 8 7 9 9 8 9 10 11 10 9 9 8 8 8 8 8 8 8 7 8 6 5 4 4 4 5 7 12 11 17 18 19 16 12 8 11 8 9 9 9 7 5 6 7 12 15 16 16 16 16 16 13 8 10 12 12 13 9
6 6 8 7 8 9 9 9 6 4 3 3 5 7 8 8 13 4 3 4 5 5 6 6 6 6 6 7 7 8 8 8 9 9 8 9 8 8 7 7 7 8 8 8 7 8 7 7 7 6 5 5 5 5 9 12 13 18 18 18 16 13 13 8 6 6 5 6 6 7 7 11 13 14 15 16 16 14 9 10 12 13 13 11 5
7 9 8 6 7 10 10 10 7 5 4 4 4 7 8 10 6 2 4 5 5 5 6 6 6 6 7 7 7 7 8 8 8 9 10 8 8 9 8 7 8 7 7 7 7 8 8 7 7 7 7 6 5 6 6 9 12 14 17 18 17 15 13 11 7 5 6 6 7 9 10 11 11 12 15 15 12 13 13 12 12 12 10 5 5
6 8 7 6 6 7 9 12 12 5 5 4 5 6 9 8 1 2 4 4 5 6 6 6 6 6 7 8 8 6 7 8 8 7 8 8 10 9 8 7 7 7 7 5 6 7 6 6 7 7 7 7 6 5 5 5 6 8 9 13 14 13 13 13 10 6 8 9 10 10 10 9 10 9 7 5 4 3 6 8 9 9 4 5 5
8 8 7 8 6 8 11 10 13 8 4 5 5 6 6 3 3 3 4 5 5 6 6 5 7 7 7 8 9 8 7 7 7 7 6 6 6 6 7 7 7 5 5 5 6 6 6 7 7 7 6 6 6 6 6 6 6 7 7 8 10 11 14 13 10 7 8 7 8 7 6 7 6 9 8 6 5 4 3 3 3 3 4 5 5
5 6 5 5 6 8 10 10 11 10 5 5 5 5 4 4 5 6 6 6 5 6 7 7 8 8 8 8 9 11 11 8 8 8 8 7 6 7 8 9 9 9 8 7 8 9 10 10 9 7 7 6 7 7 8 9 9 9 8 7 7 7 8 8 7 6 6 6 6 6 7 5 5 5 5 4 4 4 5 5 5 4 4 5 6
8 5 4 6 6 8 10 9 11 7 5 5 4 3 2 4 4 6 8 8 7 6 7 7 7 7 8 7 8 9 9 10 9 8 8 8 10 10 9 7 5 6 8 10 9 7 6 6 8 9 9 8 7 9 10 9 10 11 11 9 9 8 7 6 7 9 7 5 5 5 5 5 6 6 4 5 6 6 5 6 6 5 5 6 5
7 4 5 6 8 9 10 10 9 4 4 4 3 2 1 1 2 4 6 9 9 8 7 7 7 7 7 7 7 7 7 7 8 7 8 7 8 8 5 7 6 6 7 5 6 6 7 7 7 6 7 10 11 9 12 18 17 16 16 14 10 10 10 8 10 14 8 6 6 6 6 6 6 6 6 6 6 6 6 6 5 7 6 5 5
9 7 8 7 9 8 8 9 8 4 2 1 1 1 0 0 1 3 4 6 8 8 7 7 7 7 8 8 8 8 7 7 7 8 8 8 7 8 10 9 7 8 8 10 10 9 11 9 7 6 7 7 7 12 17 17 17 17 17 16 15 15 15 15 16 10 7 8 7 7 6 6 6 6 6 7 7 7 6 7 6 5 5 6 6
Wind_Direction
213 197 189 189 185 183 177 167 170 166 173 175 172 175 179 173 161 173 175 164 163 160 160 162 163 167 183 187 177 162 148 142 156 163 177 184 190 203 180 152 153 160 166 160 160 152 151 152 155 160 159 159 162 161 153 147 150 146 142 140 134 129 128 135 132 125 117 89 73 82 78 72 78 72 66 63 66 72 75 85 88 87 87 80 71
210 205 186 174 167 166 160 164 166 171 187 182 184 181 178 172 172 169 171 172 174 171 162 166 175 179 171 184 164 163 154 161 169 175 180 170 181 188 194 164 159 154 165 165 160 160 153 157 161 162 163 163 154 145 145 150 151 152 147 132 140 142 144 156 157 133 89 136 135 120 70 61 78 85 81 71 75 70 78 81 77 90 99 108 94
211 197 157 157 156 160 166 171 185 187 183 188 185 172 175 177 174 167 176 176 176 164 157 169 168 177 173 173 170 128 99 136 152 163 158 167 176 184 189 181 161 158 162 170 165 167 161 156 165 163 164 155 149 154 157 161 165 160 160 148 141 131 132 163 174 191 129 125 110 100 145 104 83 57 79 89 99 102 90 97 98 86 89 93 93
199 177 170 165 168 170 168 179 185 177 178 182 181 180 179 182 173 168 177 176 172 163 157 159 165 176 190 168 130 127 143 106 111 134 146 151 173 179 190 180 164 162 163 161 162 160 154 165 162 162 164 166 160 157 165 168 168 165 156 154 146 144 160 178 201 178 148 141 153 175 166 122 122 224 145 115 107 118 119 118 116 113 100 85 78
193 182 172 169 176 187 185 177 165 181 183 184 179 178 180 185 180 171 173 179 173 159 157 155 135 125 106 89 97 91 87 122 136 171 179 168 148 166 178 165 161 161 166 166 168 168 169 164 163 163 163 167 162 161 169 175 172 167 162 158 168 158 160 169 199 176 176 178 125 126 121 189 202 156 125 119 135 96 91 103 103 113 106 102 97
196 184 185 186 187 172 157 167 177 187 190 185 177 180 178 184 177 167 164 171 166 163 166 152 152 153 153 157 169 176 175 176 189 184 174 175 171 143 132 159 160 163 163 165 168 163 162 165 161 159 163 165 168 168 165 161 170 169 172 166 165 173 158 163 185 216 199 207 126 150 166 170 150 160 124 175 127 103 141 126 125 118 114 116 118
226 187 164 170 172 161 176 181 185 187 196 174 175 180 175 172 172 166 162 167 169 166 166 151 166 172 182 186 188 190 189 196 177 156 164 157 147 161 151 151 165 164 167 163 165 165 160 162 162 163 166 166 162 158 167 176 175 175 167 168 169 157 161 170 179 182 164 295 124 113 94 140 138 142 181 108 138 254 132 133 103 131 122 118 134
174 192 164 169 166 172 184 186 183 187 176 167 169 172 174 172 170 169 159 164 171 167 163 164 173 180 187 195 195 200 199 177 167 153 150 146 153 155 148 144 154 167 164 166 168 164 162 164 163 161 165 167 163 170 174 176 172 171 171 167 159 170 169 174 176 178 177 186 161 118 60 111 149 99 145 159 150 150 211 140 117 160 132 152 145
146 159 181 159 170 181 173 175 179 167 171 172 171 173 171 168 166 164 160 161 172 172 163 172 177 183 193 200 202 201 182 156 147 147 144 148 149 151 154 154 147 149 159 164 168 165 164 167 165 164 166 168 172 171 171 174 177 170 168 167 175 175 180 169 168 184 175 161 144 131 117 141 107 94 146 127 137 120 151 179 179 200 133 151 134
127 153 165 151 161 165 164 156 161 174 171 164 163 165 171 164 168 171 169 167 173 173 162 174 179 179 196 204 206 195 175 152 155 160 157 158 158 162 156 160 163 153 152 160 160 164 165 165 165 167 171 170 172 175 170 174 179 177 177 179 174 172 169 168 178 175 164 146 153 146 144 117 78 67 147 101 94 123 158 191 178 169 176 219 138
122 116 117 120 133 145 141 155 165 163 166 163 167 171 173 171 172 180 176 169 174 171 168 179 185 186 196 203 206 196 184 163 162 168 160 167 167 163 166 168 166 166 156 167 166 160 163 165 167 169 170 169 172 171 178 178 179 179 182 175 173 167 169 164 155 163 156 151 156 159 165 168 169 171 186 177 145 128 86 140 154 181 167 145 205
148 129 130 121 114 134 144 157 167 169 166 171 174 173 177 178 176 181 178 171 173 169 173 184 190 194 196 201 207 202 189 177 176 173 174 175 169 165 161 154 166 162 161 163 171 170 160 166 166 163 166 167 177 179 180 181 178 175 175 178 172 163 163 157 159 160 156 159 158 157 163 173 177 159 181 165 148 157 142 156 159 159 99 112 151
151 159 156 157 169 170 177 175 168 176 183 180 179 177 179 181 181 185 189 176 172 165 175 185 192 199 197 200 203 198 194 183 181 174 174 176 171 165 167 173 162 165 175 175 186 180 171 167 167 169 172 178 179 177 180 177 170 172 177 172 164 164 168 159 159 163 154 157 164 157 151 144 162 175 151 157 137 132 133 133 188 155 148 148 174
170 169 173 181 184 188 188 183 182 183 186 186 182 180 181 183 183 188 196 187 169 170 176 185 195 200 202 203 199 190 193 183 185 177 177 180 174 177 180 177 178 184 175 188 185 182 185 183 177 175 177 177 179 178 176 179 177 180 176 169 164 155 141 143 139 141 139 141 131 122 126 127 105 104 128 122 133 127 135 144 147 155 112 160 151
171 173 182 188 190 185 187 191 188 190 188 187 186 183 178 185 187 191 191 190 187 172 175 184 190 199 204 208 205 190 185 181 184 174 172 177 180 182 188 182 186 187 188 183 177 186 183 178 178 175 175 177 177 175 172 175 180 173 169 157 146 139 129 130 134 134 134 129 119 126 122 100 97 90 101 99 111 133 145 150 142 141 109 105 162
179 184 196 196 190 185 187 193 194 193 191 190 189 182 186 192 191 195 193 190 193 183 182 181 186 196 202 204 206 195 180 175 170 160 172 179 181 184 186 188 194 190 186 170 180 181 183 180 179 180 174 173 176 172 168 166 165 161 150 145 142 139 130 131 139 129 131 130 125 123 107 103 94 94 93 101 94 108 123 136 138 145 149 172 154
187 198 199 196 192 193 190 190 193 191 192 195 191 188 188 188 191 195 197 195 196 195 191 183 186 196 204 203 199 198 187 182 175 167 170 177 180 186 185 192 187 184 178 176 175 182 183 180 179 178 176 174 171 166 162 160 154 151 152 146 142 141 132 140 140 132 134 127 124 125 123 120 111 104 95 97 104 96 100 109 131 150 158 136 160
194 200 199 195 192 190 191 194 192 192 193 192 194 187 190 191 190 194 195 198 201 193 191 188 191 199 203 205 204 200 192 185 177 170 169 174 182 182 183 185 189 182 173 173 173 179 180 177 176 175 174 171 171 161 157 153 148 148 150 148 145 139 131 129 137 133 132 124 121 118 123 119 124 110 116 116 106 109 102 107 107 116 130 142 154
168 188 192 189 184 190 191 193 193 191 191 192 187 185 190 194 194 194 198 199 198 195 184 184 186 195 202 205 204 201 193 185 183 172 171 180 182 182 186 189 181 172 166 167 172 177 175 174 171 167 163 163 160 161 158 154 149 143 145 142 146 137 134 136 143 135 138 130 131 128 129 126 131 125 119 108 103 102 109 108 104 99 96 126 129
198 195 193 189 189 189 188 187 191 190 188 188 184 185 194 195 193 196 197 195 196 193 177 182 181 187 197 196 203 202 195 190 186 179 180 186 184 180 180 177 181 165 169 166 170 175 173 169 166 162 161 157 158 159 158 153 148 148 147 145 153 141 139 142 144 140 139 138 136 136 142 140 142 127 119 113 108 104 112 112 116 112 108 114 122
199 187 186 187 184 181 184 187 190 192 187 184 187 192 193 196 201 194 193 196 199 191 182 188 179 191 191 197 197 196 196 191 189 186 184 188 185 183 182 177 151 173 162 167 171 173 170 168 163 164 162 161 159 159 159 153 150 150 151 150 150 148 143 147 143 142 140 139 139 138 144 146 145 130 129 122 118 121 113 112 116 113 114 120 119
167 157 158 172 158 156 165 176 183 193 202 198 197 189 196 204 206 200 193 198 195 198 190 182 186 189 196 197 195 193 191 188 190 188 190 187 183 184 179 161 174 174 168 170 174 172 170 165 164 164 162 162 163 162 161 157 155 153 154 156 154 151 148 150 148 147 149 145 143 141 146 147 149 133 134 133 139 131 129 127 133 134 141 156 154
159 150 161 177 174 171 174 180 196 204 210 211 206 200 201 205 206 210 201 198 193 198 195 182 183 188 197 199 197 196 189 189 188 186 191 186 182 180 174 175 178 172 175 174 172 171 171 167 168 168 164 164 167 166 168 165 164 162 159 162 161 158 156 155 155 154 153 149 145 148 150 146 142 130 134 138 137 139 139 140 154 147 147 162 149
144 142 159 164 157 163 164 187 206 215 211 213 216 209 205 205 206 208 211 196 189 193 195 193 186 187 187 194 201 196 191 192 192 188 188 186 180 180 176 180 180 172 176 176 168 171 174 171 167 169 169 167 167 170 172 174 170 168 165 164 165 164 161 159 156 156 157 156 153 148 156 152 144 135 140 141 146 147 148 152 153 162 150 160 170
177 189 189 153 168 190 196 193 204 214 219 217 217 216 209 210 204 210 217 203 190 186 190 197 191 182 182 190 198 194 196 195 194 186 188 183 183 180 180 183 175 178 177 168 170 169 174 177 176 174 172 172 173 172 175 176 177 178 172 165 164 162 162 161 160 161 161 158 158 158 158 154 146 139 145 146 157 157 161 155 160 163 163 161 147
198 201 170 197 210 216 217 211 212 219 223 226 223 220 217 210 209 206 211 213 200 184 189 189 191 184 188 192 198 198 200 197 193 190 187 184 182 182 181 185 181 178 175 178 173 176 180 183 183 180 177 176 173 175 179 179 176 175 171 165 160 160 162 160 161 162 163 162 159 158 159 156 152 152 159 159 162 165 162 163 164 165 165 153 155
214 190 200 214 208 214 221 216 212 212 215 221 226 230 226 219 214 207 206 208 208 190 188 188 192 196 197 201 199 203 203 200 195 190 184 182 183 181 180 186 183 178 179 180 182 181 187 185 186 181 180 176 175 176 178 178 174 167 165 164 160 159 159 158 162 164 165 162 159 157 159 160 160 161 161 167 167 167 171 173 171 169 168 161 169
294 232 222 220 225 227 220 221 215 217 217 220 220 220 223 223 220 210 202 200 204 196 190 188 188 200 208 208 203 198 199 200 196 190 186 185 181 182 186 183 179 182 185 186 184 187 187 188 187 185 183 177 174 174 176 172 166 171 169 166 162 159 157 156 160 163 163 163 161 161 162 166 167 168 167 168 166 170 167 171 175 167 170 169 176
249 244 236 239 243 237 233 229 223 213 211 218 219 223 223 230 231 220 207 209 199 194 195 190 190 202 211 207 203 199 195 192 189 190 190 188 186 184 182 183 185 188 188 188 186 186 186 191 188 185 180 178 175 175 173 170 170 171 171 167 164 161 157 156 160 163 164 162 161 165 167 170 171 171 171 170 175 168 164 171 182 174 174 175 175
244 243 243 242 246 248 242 235 224 209 214 212 213 218 218 217 221 221 214 214 185 203 197 194 200 208 203 201 204 201 197 190 188 193 192 187 185 183 182 187 190 190 188 186 187 187 189 192 185 182 180 175 178 174 176 174 174 171 172 167 162 162 163 164 163 162 164 170 170 167 172 170 170 172 171 173 175 176 178 176 174 176 176 174 179
249 250 256 256 256 257 257 248 231 215 215 214 214 217 219 220 218 218 217 209 192 202 205 197 206 204 194 195 200 205 196 197 196 190 190 186 184 181 184 189 191 191 189 187 184 185 189 190 187 181 180 180 176 180 181 182 178 175 169 168 168 168 165 164 165 166 168 172 174 171 164 172 172 175 179 179 179 182 185 184 179 180 179 174 176
260 266 265 263 263 264 260 254 243 224 219 216 215 215 209 216 218 219 216 198 193 205 208 206 204 192 195 197 200 199 201 201 191 194 188 184 179 181 186 188 189 189 190 182 185 189 187 185 187 187 183 179 178 181 184 185 182 178 176 172 167 162 167 171 172 173 172 169 169 168 169 169 176 180 179 185 187 188 190 190 187 187 185 184 181
262 261 261 263 264 260 257 256 251 233 222 220 214 210 210 216 215 218 198 187 203 206 209 209 202 195 198 198 193 199 204 201 198 190 183 178 181 184 186 188 190 184 175 183 189 184 189 188 185 182 186 185 189 190 186 185 184 181 177 171 168 168 169 175 175 174 171 169 167 167 167 174 184 180 177 186 188 194 199 197 194 191 193 195 200
270 263 266 271 271 268 262 255 251 239 225 224 210 210 217 217 213 187 188 203 202 207 206 209 204 201 199 195 194 197 203 204 195 186 183 185 185 191 188 183 176 176 183 185 185 190 188 188 185 182 186 196 200 189 188 187 185 181 177 169 172 171 173 173 174 173 171 171 170 169 170 178 178 177 184 183 187 191 193 196 203 205 205 209 210
278 276 274 271 272 276 277 276 272 260 244 227 224 216 226 211 188 199 200 201 207 207 209 207 206 205 195 194 198 197 200 198 192 187 186 191 191 188 185 184 181 184 186 189 188 186 190 189 186 181 183 192 204 193 188 186 187 184 179 166 170 168 169 171 174 174 173 172 174 173 175 179 177 180 186 184 181 188 186 196 205 213 215 215 216
269 272 272 272 271 272 279 282 277 272 260 220 223 216 209 212 195 198 196 205 206 209 211 207 212 206 201 199 195 195 195 192 191 188 188 191 192 191 188 183 180 184 188 186 193 193 189 187 184 182 184 194 187 185 187 188 188 184 163 172 165 169 168 170 172 174 172 173 173 174 174 176 178 184 188 186 184 175 179 190 204 216 220 222 226
264 260 265 271 282 293 289 287 287 276 265 240 233 204 203 200 190 203 199 205 203 211 211 210 215 207 203 198 196 195 193 188 188 190 193 192 190 191 188 179 182 183 184 190 191 189 185 183 185 184 183 190 195 191 186 186 185 177 165 170 166 164 169 168 173 172 172 169 173 175 176 174 175 188 187 188 193 176 184 191 205 215 219 222 235
288 297 300 299 297 297 293 285 281 283 262 246 226 193 194 199 205 201 201 207 206 215 213 214 215 207 203 199 198 192 189 185 187 195 195 193 187 184 187 183 184 183 189 191 186 187 191 191 187 188 188 185 189 186 183 184 182 179 172 167 166 163 167 167 163 166 163 170 178 177 177 175 179 190 182 191 193 183 191 198 205 215 222 228 239
289 293 303 303 294 284 281 294 294 287 288 272 210 190 193 210 208 205 206 211 213 219 214 214 213 205 202 195 194 191 188 186 191 196 190 185 184 185 179 178 189 185 186 180 186 186 190 193 195 194 190 186 175 179 180 182 181 179 171 163 161 159 160 169 166 167 164 166 174 180 183 184 189 184 188 191 192 185 195 197 206 207 225 233 231
292 285 274 280 296 325 317 313 305 289 301 270 194 190 209 216 218 207 210 219 220 220 217 212 199 191 186 189 191 191 190 188 189 182 181 181 167 164 174 180 184 182 180 182 183 186 186 191 187 190 191 182 169 177 178 178 177 178 167 163 164 160 169 170 173 167 161 172 177 182 193 199 198 192 194 195 194 187 192 202 191 208 220 241 185
312 308 318 320 311 309 293 295 293 292 303 248 186 202 225 227 220 211 224 225 225 215 185 188 185 178 179 186 186 189 187 184 177 174 166 164 168 172 167 175 180 182 178 176 179 179 179 175 167 173 175 182 177 171 178 175 171 167 163 164 172 177 170 169 170 169 173 173 181 188 187 198 207 204 200 199 196 197 194 192 196 213 217 206 142
308 311 338 329 313 305 298 295 283 287 278 215 197 222 240 235 224 230 233 230 198 181 178 177 182 184 180 180 181 174 172 166 161 158 165 172 171 167 173 175 179 179 178 176 169 165 156 152 155 165 170 164 162 168 171 176 171 170 170 166 166 178 171 165 164 174 175 184 188 181 191 197 202 208 202 200 204 206 202 191 209 216 221 222 204
323 323 324 345 320 314 312 304 303 275 235 217 195 232 243 238 233 241 238 193 176 170 173 177 175 176 175 172 166 159 160 156 161 164 164 168 165 168 171 169 171 168 165 159 156 154 157 149 141 144 144 154 158 163 166 169 175 174 174 174 169 161 168 166 172 180 184 186 170 182 188 186 196 203 207 205 207 210 212 212 211 215 223 227 223
292 273 286 317 304 297 296 298 298 284 241 219 202 239 244 240 246 251 176 162 161 163 161 164 165 159 153 157 157 157 153 154 155 152 156 158 159 158 158 165 164 162 161 161 162 156 152 152 155 147 148 160 164 157 170 169 175 178 179 180 178 174 177 180 175 178 170 173 174 180 183 185 194 197 202 208 212 214 208 216 224 228 231 232 212
286 289 292 296 285 290 297 292 283 268 247 231 220 233 255 249 258 157 173 159 157 151 153 156 152 152 153 151 146 148 146 146 150 151 154 154 149 148 155 166 164 166 166 165 162 163 162 159 153 156 164 165 165 160 155 171 173 181 184 187 188 183 185 175 181 183 166 171 169 171 177 187 189 186 198 206 213 216 218 216 222 229 231 218 206
278 287 289 286 293 291 291 290 292 258 246 230 224 213 240 254 225 165 159 149 146 148 152 153 148 146 144 138 132 129 134 140 144 151 153 157 157 161 160 162 163 168 166 149 154 162 152 146 162 168 170 163 155 151 156 156 168 179 184 190 190 193 197 198 195 179 171 161 165 167 169 169 172 179 182 180 177 191 211 228 234 235 218 200 191
280 272 295 306 311 303 295 293 294 292 267 259 239 232 226 213 166 155 142 142 147 148 144 140 140 135 135 137 135 136 134 137 141 137 138 140 144 148 148 150 160 149 130 134 141 153 156 166 169 171 160 155 158 161 166 171 174 180 189 194 197 200 198 197 194 178 171 167 171 167 154 153 154 164 163 166 160 172 184 215 216 226 217 203 203
250 263 268 281 286 281 283 288 284 287 280 263 253 244 216 172 156 146 142 138 142 147 146 147 143 143 145 146 142 143 142 145 147 145 141 141 145 151 154 163 168 165 162 168 171 175 180 179 174 162 159 152 172 179 184 184 183 182 183 183 187 179 183 182 177 163 151 149 142 146 158 159 155 162 164 157 168 170 178 182 196 196 210 218 222
296 272 237 241 258 264 265 270 269 273 258 251 252 253 233 183 167 153 146 143 146 145 142 146 148 147 152 152 150 156 155 150 149 149 149 156 163 165 161 165 169 175 179 171 169 165 169 167 164 167 165 174 178 197 203 180 182 180 175 174 182 184 173 165 158 146 132 131 134 146 157 159 165 169 175 178 183 186 195 191 192 198 200 204 210
283 255 236 243 246 252 265 268 272 267 237 235 242 269 273 237 174 167 155 149 149 147 148 155 156 154 152 149 150 150 149 145 138 131 113 77 59 98 128 147 145 132 131 124 147 168 169 163 168 184 178 178 194 196 169 178 181 181 182 180 174 167 167 156 163 167 148 145 162 165 171 165 165 161 176 187 192 189 187 189 187 199 200 198 198
295 299 277 248 249 246 255 265 268 260 236 225 214 292 298 259 182 182 168 157 149 148 151 156 159 164 162 155 152 149 150 141 136 131 124 115 101 73 93 102 106 131 145 158 161 150 155 166 166 163 175 173 137 151 169 174 173 177 176 174 172 175 175 172 174 160 148 166 164 168 172 164 172 174 187 196 194 191 189 176 182 183 190 202 210